OpenBCM V1.13 (Linux)

Packet Radio Mailbox

DB0FHN

[JN59NK Nuernberg]

 Login: GUEST





  
UA9FBV > KEPS     08.10.04 06:17l 95 Lines 2474 Bytes #999 (0) @ AMSAT
BID : ORB04281.M
Read: GUEST
Subj: Orbital Elements  04281.MISC
Path: DB0FHN<DB0RGB<OK0PPL<DB0RES<ER3KAZ<UA9FBV
Sent: 041008/0406Z @:UA9FBV.PRM.RUS.AS #:5020 [Perm] GATEWAY $:ORB04281.M
From: UA9FBV@UA9FBV.PRM.RUS.AS
To  : KEPS@AMSAT


HR AMSAT ORBITAL ELEMENTS FOR MANNED AND MISCELLANEOUS SATELLITES
FROM WA5QGD FORT WORTH,TX October 7, 2004
SEND SUBSCRIBE/UNSUBSCRIBE TO majordomo@amsat.org ONLY
BID: ORB04281.M
TO ALL RADIO AMATEURS BT

Satellite: HUBBLE
Catalog number: 20580
Epoch time:      04280.88293501
Element set:     172
Inclination:       28.4655 deg
RA of node:       118.8179 deg
Eccentricity:    0.0003566
Arg of perigee:   111.4260 deg
Mean anomaly:     248.6710 deg
Mean motion:   14.99335269 rev/day
Decay rate:      1.102e-05 rev/day^2
Epoch rev:           59218
Checksum:              291

Satellite: UARS
Catalog number: 21701
Epoch time:      04281.71100619
Element set:     282
Inclination:       56.9788 deg
RA of node:       133.3782 deg
Eccentricity:    0.0004367
Arg of perigee:   111.4335 deg
Mean anomaly:     248.7090 deg
Mean motion:   15.03633532 rev/day
Decay rate:       1.94e-06 rev/day^2
Epoch rev:           71551
Checksum:              274

Satellite: PO-34
Catalog number: 25520
Epoch time:      04280.21113027
Element set:      26
Inclination:       28.4602 deg
RA of node:       209.7069 deg
Eccentricity:    0.0005571
Arg of perigee:   344.9722 deg
Mean anomaly:      15.0712 deg
Mean motion:   15.15771654 rev/day
Decay rate:      1.360e-05 rev/day^2
Epoch rev:           32800
Checksum:              254

Satellite: ISS
Catalog number: 25544
Epoch time:      04281.97340521
Element set:     859
Inclination:       51.6349 deg
RA of node:       110.1997 deg
Eccentricity:    0.0009656
Arg of perigee:   197.6066 deg
Mean anomaly:     298.1431 deg
Mean motion:   15.68812867 rev/day
Decay rate:     1.6355e-04 rev/day^2
Epoch rev:           33603
Checksum:              327

Satellite: OO-38
Catalog number: 26063
Epoch time:      04280.52376664
Element set:     178
Inclination:      100.2265 deg
RA of node:        87.8695 deg
Eccentricity:    0.0037264
Arg of perigee:    49.2856 deg
Mean anomaly:     311.1550 deg
Mean motion:   14.35671213 rev/day
Decay rate:        6.5e-07 rev/day^2
Epoch rev:           24589
Checksum:              311

Satellite: NO-45
Catalog number: 26932
Epoch time:      04281.49724303
Element set:     863
Inclination:       67.0575 deg
RA of node:       158.2226 deg
Eccentricity:    0.0005873
Arg of perigee:   287.1525 deg
Mean anomaly:      72.8932 deg
Mean motion:   14.29444525 rev/day
Decay rate:       -6.4e-07 rev/day^2
Epoch rev:           15768
Checksum:              324



Read previous mail | Read next mail


 18.06.2026 05:33:55lGo back Go up